Location: Avully
(45.9633°N, 6.0228°E)
Time: 03:59:09
(UTC+00:00)

Sich 1 Rocket - Pass Details

Date: 23 May 2024
Orbit: 613 x 650 km, 82.5° (Epoch: 21 June)

Event Time Altitude Azimuth Distance (km) Brightness Sun altitude
Rises 02:32:17 0° 351° (N) 2,958 7.6 -12.0°
Reaches altitude 10° 02:34:33 10° 352° (N) 2,038 6.8 -11.7°
Maximum altitude 02:39:05 85° 82° (E) 642 3.6 -11.1°
Drops below altitude 10° 02:43:32 10° 171° (S) 1,998 5.8 -10.6°
Sets 02:45:44 0° 172° (S) 2,894 6.6 -10.3°
